Tracking 35274 objects as of 10-Sep-2026
HD Live streaming from Space Station
objects crossing your sky now

DELTA 1 DEB


DELTA 1 DEB is no longer on orbit


NORAD ID: 8375
Int'l Code: 1972-058ER
Launch date: July 23, 1972
Source: United States (US)
Launch site: AIR FORCE WESTERN TEST RANGE (AFWTR)
Decay date: 1981-05-27

Note: This is SATELLITE DEBRIS
Your satellite tracking list
Your tracking list is empty




NASA's NSSDC Master Catalog

Two Line Element Set (TLE):
1 08375U 72058 ER 81063.64936448  .00400835 +00000-0 +33841-1 0  9997
2 08375 098.3215 322.5531 0085584 178.9241 181.3258 14.95268029446329
Source of the keplerian elements: AFSPC